Wind_Speed
7 8 9 11 13 15 16 17 18 19 20 20 20 21 20 19 19 15 11 12 12 11 10 10 8 5 4 15 11 17 25 33 23 17 15 15 12 8 4 4 12 3 3 13 24 18 15
7 8 9 10 12 14 16 17 18 19 21 21 21 21 20 19 18 14 10 10 10 10 9 6 7 9 15 11 17 17 30 33 16 16 16 13 6 8 2 4 2 7 16 18 20 14 8
7 8 9 10 12 14 16 17 18 19 21 21 22 21 20 17 18 14 8 9 9 6 4 5 5 2 19 16 13 23 31 26 12 17 13 6 7 6 8 6 5 15 8 7 7 10 8
6 7 8 9 11 13 15 16 18 19 20 22 23 22 19 16 17 13 7 9 7 5 8 5 5 5 7 13 12 28 34 26 16 11 11 4 3 4 5 11 7 5 4 7 6 15 4
5 6 7 9 10 12 14 16 17 19 20 22 23 21 19 16 17 12 5 7 10 7 7 7 8 5 5 15 19 31 34 21 16 18 4 3 1 4 7 4 4 5 5 14 10 6 10
5 6 7 8 10 12 13 15 17 19 21 21 22 20 20 17 16 13 6 1 7 6 5 7 12 4 15 17 11 25 33 24 21 24 8 12 5 4 4 6 3 12 9 7 20 11 18
4 4 5 7 9 11 13 14 16 18 20 20 21 19 20 19 14 13 9 1 5 4 23 13 12 7 14 14 11 24 31 21 21 16 7 7 5 4 6 4 6 6 3 17 20 19 16
2 3 5 6 8 11 12 14 16 18 19 20 20 18 20 18 13 16 11 5 6 9 10 13 6 14 17 18 8 22 29 13 9 5 10 6 1 2 9 8 7 6 11 19 17 14 21
1 3 4 5 7 10 11 14 16 17 19 20 19 17 19 15 10 16 16 12 12 9 5 4 8 14 18 10 9 22 29 12 5 7 6 2 4 10 12 7 8 9 13 13 24 28 19
1 1 2 4 7 9 10 13 15 17 19 20 18 17 19 14 7 14 10 6 7 5 4 8 9 9 18 11 3 24 26 13 9 6 7 4 8 11 10 7 11 13 8 20 24 16 3
2 0 2 4 6 8 10 12 15 17 19 19 17 14 19 13 11 13 8 3 6 2 5 8 5 7 16 13 10 22 25 12 3 8 5 6 6 10 2 10 11 7 18 25 17 7 4
3 1 1 3 5 7 9 11 14 17 18 19 16 13 16 16 16 16 9 4 4 5 3 5 5 9 10 11 8 15 14 19 2 4 3 6 11 3 1 12 7 12 13 16 3 2 3
4 2 1 2 4 7 9 11 14 16 18 19 12 12 17 16 17 18 10 2 4 7 4 9 5 8 5 7 6 12 5 8 6 8 13 9 7 6 4 7 7 7 11 6 7 5 4
5 3 2 1 4 6 8 11 13 15 17 18 10 9 16 16 17 17 8 4 10 1 3 3 6 10 5 9 5 11 6 6 4 4 3 5 9 4 7 2 4 5 4 0 6 9 14
6 4 3 2 3 5 8 10 12 14 17 17 9 5 17 15 16 15 3 7 3 2 3 5 8 4 5 6 3 8 4 3 4 1 3 5 6 8 14 3 4 4 6 5 5 7 4
8 5 4 3 3 5 6 9 12 15 17 16 8 1 17 13 13 10 7 5 3 1 2 2 2 4 4 6 7 6 3 4 4 3 3 4 8 4 5 2 6 4 3 5 3 6 7
9 7 6 5 3 4 6 9 12 14 16 15 5 2 14 11 9 12 4 2 2 1 3 1 1 3 3 3 3 3 4 4 1 5 5 3 3 7 5 2 4 2 3 3 4 3 4
10 8 7 5 3 4 5 8 11 13 15 13 3 3 13 8 8 6 3 4 4 0 3 2 1 4 4 3 3 3 4 4 14 16 4 4 2 4 9 7 5 4 1 2 3 4 4
11 10 8 7 4 3 5 8 10 12 14 10 2 3 10 6 4 2 2 2 2 1 0 1 2 2 2 2 4 4 4 6 16 11 1 2 2 5 9 5 4 2 3 6 8 6 4
12 11 9 8 6 3 4 7 9 11 12 8 2 2 8 13 9 6 4 1 1 1 2 1 2 2 4 3 4 5 7 7 25 13 8 8 2 6 5 13 13 10 3 10 7 3 10
14 12 11 9 7 4 4 6 8 9 9 6 4 3 3 2 5 7 4 2 1 1 0 1 0 2 4 2 5 3 3 8 8 4 12 3 3 4 15 17 12 2 2 12 11 10 4
14 13 12 11 9 6 4 5 7 8 7 5 2 3 5 5 6 5 1 3 3 1 3 2 1 6 4 4 7 10 3 1 6 6 6 2 4 13 9 1 6 5 8 15 14 9 7
14 14 14 12 10 6 4 5 5 6 5 2 3 5 4 4 4 4 3 4 5 3 3 5 2 3 3 5 13 25 23 22 18 3 3 2 4 4 5 8 4 3 2 9 15 6 7
16 15 15 14 12 7 5 6 5 5 3 2 3 4 3 1 3 3 6 4 5 5 4 4 6 2 6 23 22 6 3 11 12 14 15 5 4 2 4 7 3 5 2 7 10 3 8
18 17 16 15 13 8 6 7 6 5 3 2 2 2 3 2 2 4 6 3 3 3 3 4 4 8 14 11 4 5 4 5 2 2 1 5 2 4 2 2 5 4 8 12 4 5 15
20 18 17 17 13 10 8 9 7 5 2 0 2 3 3 9 4 5 5 3 3 1 4 2 4 6 9 3 3 2 1 3 5 8 2 6 3 2 4 3 3 3 13 27 2 3 31
23 19 18 18 17 12 11 11 8 6 4 2 1 2 3 5 7 6 3 4 4 2 2 2 5 4 8 3 3 1 3 1 2 4 4 4 4 1 4 3 4 7 16 21 6 6 35
27 23 22 21 17 14 14 13 11 7 6 4 2 2 1 4 8 7 6 5 5 3 3 1 2 4 4 4 2 2 0 3 2 3 2 2 2 3 3 3 5 17 6 4 7 26 25
31 27 25 23 17 15 15 15 12 9 7 5 3 2 2 3 6 7 6 5 4 3 2 1 2 2 2 3 1 1 2 1 2 3 2 3 5 3 5 4 4 15 4 12 20 20 24
Wind_Direction
79 65 54 45 40 36 31 28 25 24 24 22 18 18 17 18 21 18 34 58 63 66 77 75 54 44 42 53 28 358 350 353 352 11 18 14 25 13 10 334 336 175 298 321 313 320 337
78 64 52 45 39 32 29 26 24 22 20 19 20 19 17 17 18 16 35 58 73 87 81 67 78 68 59 65 11 353 356 354 11 19 21 26 14 355 324 312 329 303 302 301 309 325 357
73 61 49 41 37 31 28 24 22 20 18 17 20 19 16 16 16 16 42 71 84 72 72 63 44 32 41 44 15 358 1 0 10 360 350 359 347 348 335 331 327 288 301 329 300 342 314
71 59 49 43 36 30 28 25 20 19 17 16 16 17 17 17 15 12 52 85 46 61 83 108 39 54 66 24 358 11 6 3 1 10 9 12 1 316 24 323 328 1 42 336 307 299 266
75 59 48 43 34 29 27 25 20 16 16 15 14 13 16 17 17 14 57 107 33 120 87 79 60 80 38 352 10 7 6 7 2 7 34 338 346 72 19 24 8 20 290 304 309 273 297
77 62 51 42 32 27 25 24 20 15 14 14 12 12 13 14 15 14 31 95 61 120 94 60 42 56 18 352 349 354 359 355 14 10 45 29 43 63 17 36 314 299 313 290 300 296 310
75 59 51 41 30 24 20 22 20 15 14 12 11 12 8 0 11 20 24 103 106 64 66 72 72 78 342 357 7 3 359 358 7 21 18 349 68 41 328 280 248 266 263 288 290 299 295
91 58 45 38 28 23 20 18 15 13 12 12 11 10 6 351 1 19 33 97 111 134 93 66 73 17 8 353 345 1 1 8 6 9 353 14 118 307 337 324 317 313 298 299 292 302 305
103 56 45 35 26 21 20 18 12 9 10 12 9 12 4 360 351 8 35 91 117 125 87 53 26 13 4 358 37 0 9 352 28 15 352 163 270 327 331 322 331 317 295 305 301 313 314
149 69 40 31 24 16 18 17 9 5 7 10 8 9 7 12 9 2 28 87 120 135 92 337 358 11 358 353 12 9 10 3 2 349 338 290 308 322 330 353 337 315 321 305 302 322 293
193 225 33 20 22 11 13 14 6 1 4 7 9 12 1 15 11 17 15 75 151 131 49 330 358 352 9 41 316 4 9 13 35 324 70 269 304 332 337 343 325 284 320 305 304 291 45
207 228 36 9 15 8 10 11 5 359 1 4 8 7 6 16 15 11 17 95 142 47 322 339 355 352 7 359 357 3 27 25 358 356 305 257 286 250 353 343 316 332 315 309 343 52 6
212 222 259 358 1 4 5 8 3 359 356 2 9 6 10 17 6 2 5 78 38 75 351 336 329 352 342 338 351 0 6 10 44 2 351 324 318 326 44 327 307 1 353 341 359 8 256
214 217 257 328 344 358 2 3 2 356 354 360 7 8 15 15 1 354 356 54 63 173 342 355 329 324 33 7 3 348 12 11 26 61 320 13 331 19 354 178 242 344 70 2 307 319 295
216 212 236 270 329 347 1 358 357 354 356 356 2 22 20 11 1 354 12 48 163 229 269 315 316 352 336 8 11 4 18 256 240 111 58 346 263 307 315 345 120 341 17 291 263 264 282
216 213 225 247 302 339 358 355 357 354 355 354 357 11 14 5 4 10 65 109 191 221 306 10 32 48 323 327 5 23 336 243 316 239 213 256 292 279 325 106 45 87 311 345 350 308 308
214 214 226 240 284 336 353 356 358 356 356 353 6 88 9 357 12 52 90 132 152 289 356 164 276 303 260 294 289 283 252 285 262 298 276 137 153 295 345 2 229 355 6 302 256 249 288
214 213 226 237 268 323 347 357 358 0 359 354 20 57 5 15 40 55 80 142 146 254 39 340 263 180 203 299 288 279 260 219 3 347 326 232 220 294 290 310 158 141 267 269 302 311 270
215 216 220 231 251 306 341 354 358 2 4 357 63 44 24 51 80 62 120 89 163 121 60 58 330 66 229 272 333 235 292 293 344 337 305 293 316 314 340 355 292 52 46 328 292 267 260
218 217 219 225 245 284 326 347 354 4 5 12 54 40 34 58 84 119 126 99 95 80 123 298 258 40 344 312 223 283 296 307 329 314 329 355 171 173 246 264 282 295 1 343 352 288 304
217 217 219 222 237 263 302 342 356 359 2 19 47 76 56 24 52 104 112 158 116 352 89 306 19 136 177 274 299 236 276 324 307 309 342 95 243 242 283 277 275 187 279 345 0 305 275
216 217 219 225 233 246 291 338 352 352 356 29 55 138 101 101 125 104 39 214 171 280 144 269 191 290 232 202 200 286 277 171 256 314 341 331 266 315 297 293 170 175 3 3 345 314 276
218 214 218 225 228 237 274 313 340 341 357 44 96 134 150 152 127 98 203 181 193 168 234 233 274 320 276 253 292 283 270 256 249 301 298 291 307 335 271 317 343 12 314 342 324 321 300
221 215 217 223 220 220 264 292 314 324 347 21 125 141 143 220 153 182 160 169 188 210 201 238 276 202 292 313 313 303 311 246 244 253 227 285 292 211 284 343 15 250 226 300 322 274 350
224 219 216 220 215 215 251 276 298 312 340 42 125 162 143 127 158 140 159 176 234 257 223 257 251 304 321 327 15 2 346 2 351 10 162 236 317 309 332 261 275 1 343 326 59 292 5
225 221 217 214 222 224 244 261 274 286 294 347 123 128 144 137 220 148 163 185 182 242 334 247 289 330 350 35 53 72 275 273 314 328 356 360 21 143 335 319 278 230 321 321 196 279 2
223 221 215 218 223 219 237 247 262 267 259 233 157 132 148 119 157 166 167 181 167 170 180 304 338 352 7 30 56 30 291 212 341 306 312 335 341 63 299 290 300 336 324 344 56 284 328
221 221 221 224 234 225 231 239 250 246 239 225 173 150 168 144 157 182 188 174 170 191 138 145 37 5 30 58 84 268 137 274 17 266 255 192 42 317 321 339 334 6 347 73 283 307 315
221 221 224 227 232 235 226 230 236 234 232 224 204 174 128 136 149 182 191 204 219 211 192 129 130 139 128 88 39 89 291 2 161 287 39 350 177 217 183 253 328 342 301 334 337 323 329
Height
1560 1560 1560 1559 1558 1557 1556 1555 1553 1550 1548 1546 1543 1539 1536 1534 1531 1528 1526 1524 1525 1524 1524 1523 1523 1523 1521 1520 1527 1526 1522 1517 1511 1507 1505 1503 1503 1503 1505 1503 1501 1501 1498 1496 1495 1494 1493
1561 1561 1561 1560 1560 1559 1557 1555 1553 1551 1548 1546 1543 1539 1537 1534 1531 1529 1527 1525 1526 1526 1526 1525 1524 1524 1522 1525 1528 1526 1520 1514 1509 1507 1506 1504 1505 1504 1502 1503 1503 1500 1497 1495 1491 1491 1490
1562 1562 1562 1561 1561 1560 1558 1556 1554 1552 1549 1546 1543 1540 1537 1535 1532 1529 1527 1526 1526 1526 1526 1525 1524 1525 1524 1532 1529 1526 1520 1514 1511 1508 1506 1505 1505 1506 1505 1503 1501 1498 1498 1494 1491 1491 1491
1563 1563 1563 1563 1562 1560 1559 1557 1555 1552 1549 1546 1543 1541 1538 1535 1532 1530 1528 1527 1528 1528 1526 1526 1526 1526 1529 1530 1530 1525 1520 1515 1512 1509 1507 1505 1504 1505 1506 1504 1500 1500 1501 1504 1492 1490 1487
1564 1564 1564 1564 1562 1561 1559 1557 1555 1553 1550 1547 1544 1541 1538 1535 1533 1530 1528 1528 1529 1527 1527 1527 1528 1527 1533 1532 1528 1525 1522 1516 1511 1508 1504 1505 1504 1505 1506 1507 1512 1510 1518 1503 1490 1486 1484
1565 1565 1564 1564 1563 1562 1560 1558 1556 1554 1551 1547 1544 1541 1538 1535 1533 1531 1528 1529 1529 1528 1529 1528 1529 1533 1535 1534 1531 1528 1523 1518 1512 1508 1504 1505 1506 1509 1512 1514 1531 1511 1510 1504 1493 1479 1480
1565 1565 1565 1564 1564 1562 1561 1559 1557 1554 1551 1548 1544 1541 1538 1535 1534 1530 1528 1528 1532 1533 1531 1536 1539 1539 1537 1536 1531 1529 1523 1518 1514 1511 1512 1509 1513 1518 1516 1514 1511 1510 1515 1500 1488 1480 1477
1565 1565 1565 1565 1564 1563 1561 1559 1557 1555 1552 1548 1545 1542 1539 1535 1532 1530 1528 1527 1529 1533 1537 1539 1539 1538 1536 1535 1533 1530 1525 1521 1518 1520 1516 1515 1520 1513 1511 1509 1507 1506 1507 1493 1476 1474 1471
1565 1565 1565 1565 1564 1563 1561 1559 1557 1555 1552 1548 1546 1543 1539 1535 1532 1530 1528 1529 1530 1532 1535 1541 1541 1539 1538 1536 1533 1531 1526 1522 1522 1522 1522 1524 1516 1512 1510 1507 1505 1505 1502 1493 1485 1465 1463
1565 1565 1565 1565 1564 1563 1561 1559 1557 1555 1552 1549 1546 1543 1541 1536 1535 1531 1530 1530 1530 1532 1539 1548 1543 1543 1540 1534 1535 1534 1529 1527 1525 1527 1522 1521 1514 1514 1509 1507 1505 1502 1494 1487 1477 1478 1497
1564 1565 1565 1565 1564 1563 1561 1559 1557 1555 1553 1550 1547 1544 1541 1536 1536 1533 1533 1530 1531 1533 1550 1547 1546 1545 1543 1542 1542 1538 1534 1527 1530 1528 1530 1526 1518 1515 1511 1509 1505 1501 1493 1476 1470 1478 1487
1564 1565 1564 1565 1564 1563 1561 1559 1557 1555 1553 1550 1547 1545 1542 1538 1535 1533 1530 1530 1533 1539 1565 1550 1548 1547 1547 1545 1543 1540 1538 1533 1530 1530 1526 1524 1517 1515 1510 1507 1504 1501 1493 1473 1475 1483 1501
1563 1564 1564 1564 1563 1562 1561 1559 1557 1555 1552 1549 1547 1546 1541 1538 1537 1533 1531 1531 1539 1556 1555 1557 1557 1553 1553 1551 1545 1544 1542 1544 1546 1548 1534 1528 1517 1512 1511 1512 1503 1505 1496 1507 1512 1509 1493
1562 1563 1564 1564 1563 1562 1560 1559 1557 1555 1552 1549 1547 1546 1543 1539 1537 1533 1532 1533 1555 1569 1569 1566 1562 1557 1556 1555 1552 1549 1548 1554 1547 1553 1558 1554 1534 1518 1514 1521 1522 1512 1518 1520 1519 1492 1475
1561 1562 1563 1563 1562 1561 1560 1558 1556 1554 1551 1549 1547 1546 1543 1541 1537 1534 1534 1560 1573 1577 1574 1571 1565 1563 1562 1560 1561 1556 1557 1561 1555 1552 1559 1560 1536 1516 1517 1515 1517 1516 1520 1512 1515 1498 1496
1560 1561 1562 1562 1562 1561 1559 1558 1556 1554 1551 1548 1546 1545 1544 1541 1538 1536 1540 1568 1574 1572 1572 1572 1576 1572 1577 1569 1566 1567 1563 1557 1554 1550 1548 1550 1542 1519 1516 1516 1517 1519 1519 1521 1530 1507 1493
1558 1560 1560 1561 1561 1560 1559 1557 1556 1554 1550 1548 1546 1546 1545 1541 1539 1539 1566 1574 1572 1572 1572 1574 1574 1578 1582 1577 1567 1571 1568 1554 1552 1549 1546 1552 1556 1530 1521 1526 1533 1521 1533 1526 1518 1503 1492
1556 1558 1559 1560 1560 1559 1558 1556 1555 1553 1550 1547 1546 1547 1546 1542 1544 1557 1570 1569 1571 1572 1572 1572 1572 1574 1576 1571 1575 1568 1563 1556 1551 1549 1552 1546 1549 1548 1527 1524 1521 1521 1529 1525 1515 1500 1496
1554 1556 1557 1559 1559 1558 1557 1556 1554 1553 1550 1547 1546 1547 1547 1542 1557 1567 1568 1570 1571 1571 1571 1571 1572 1572 1571 1570 1577 1565 1559 1552 1550 1549 1550 1545 1556 1552 1542 1535 1524 1524 1523 1522 1514 1505 1496
1552 1554 1556 1557 1558 1557 1556 1556 1554 1553 1550 1548 1548 1550 1549 1547 1556 1561 1569 1570 1570 1571 1571 1571 1571 1571 1570 1568 1567 1566 1559 1553 1551 1547 1544 1543 1555 1556 1555 1539 1523 1520 1522 1522 1515 1509 1496
1550 1552 1554 1555 1556 1556 1556 1555 1554 1553 1551 1550 1549 1553 1553 1561 1561 1561 1565 1570 1569 1571 1571 1571 1570 1570 1574 1578 1566 1562 1557 1554 1548 1546 1545 1545 1553 1541 1529 1522 1520 1520 1524 1520 1514 1511 1504
1547 1549 1552 1552 1554 1554 1555 1554 1554 1553 1552 1551 1551 1552 1556 1559 1561 1562 1565 1569 1569 1570 1571 1570 1570 1568 1567 1573 1566 1561 1559 1558 1554 1546 1546 1544 1544 1531 1528 1513 1520 1518 1520 1515 1511 1507 1502
1544 1547 1549 1550 1551 1552 1553 1553 1553 1553 1552 1550 1550 1552 1553 1560 1561 1563 1565 1566 1567 1568 1568 1567 1566 1566 1564 1560 1557 1552 1552 1551 1550 1551 1549 1548 1542 1540 1530 1513 1511 1521 1527 1521 1511 1505 1503
1541 1543 1546 1548 1550 1550 1551 1552 1552 1552 1551 1551 1550 1551 1552 1562 1560 1560 1562 1564 1565 1566 1568 1564 1563 1563 1559 1555 1548 1544 1543 1543 1546 1544 1547 1545 1545 1538 1531 1518 1537 1520 1517 1515 1510 1504 1502
1538 1540 1542 1545 1547 1548 1550 1550 1551 1551 1551 1550 1550 1550 1550 1558 1558 1560 1561 1563 1563 1563 1563 1563 1562 1561 1557 1553 1552 1550 1548 1545 1542 1541 1542 1544 1542 1546 1545 1531 1519 1518 1519 1516 1519 1506 1499
1535 1537 1539 1541 1544 1545 1548 1549 1549 1549 1549 1549 1549 1549 1549 1551 1558 1556 1560 1562 1563 1564 1563 1561 1561 1558 1557 1555 1558 1569 1566 1557 1552 1545 1540 1541 1544 1551 1540 1544 1529 1533 1516 1509 1505 1507 1497
1531 1533 1535 1537 1540 1543 1545 1547 1548 1548 1549 1549 1549 1550 1549 1550 1554 1556 1559 1561 1561 1562 1564 1562 1560 1558 1557 1560 1563 1569 1566 1557 1563 1557 1559 1555 1556 1556 1547 1547 1528 1524 1515 1506 1519 1523 1503
1525 1529 1532 1534 1537 1539 1542 1544 1546 1547 1548 1548 1548 1549 1550 1549 1553 1555 1557 1558 1559 1560 1563 1561 1564 1561 1560 1567 1568 1574 1576 1568 1567 1555 1559 1567 1568 1561 1551 1561 1543 1525 1518 1527 1527 1517 1509
1519 1523 1527 1530 1533 1536 1538 1540 1543 1545 1546 1547 1548 1548 1549 1550 1552 1554 1555 1557 1559 1559 1561 1561 1562 1561 1562 1566 1570 1571 1566 1569 1573 1568 1553 1561 1557 1562 1555 1542 1531 1529 1527 1525 1521 1515 1508